Showing default

LEMUR 2 NIMBUS2000, 58899

Orbit data source: Space-Track

LEMUR 2 NIMBUS2000, 58899 is an American payload satellite in SSO that was launched on Wed, 31 Jan 2024 UTC via an ELECTRON launch vehicle from the Rocket Lab Launch Complex (RLLC). Payload-class satellites include a variety of spacecraft equipped with specific instruments for various scientific and technological missions. These include communications satellites like Starlink; space stations such as the ISS; scientific satellites like the Hubble; Earth observation satellites from companies like Planet Labs, Umbra, and HawkEye 360; GPS; miniature CubeSats for education and research; and military/defense satellites.

Loading next visibility...
Identifier
58899, 2024-022A
Orbit
SSO
Last TLE update
13 hours ago
Origin
Manufacturer
Spire/Glasgow
Mission
Operational Commercial Early Warn
Bus & Motor
CUBESAT 3U, Unknown motor
Mass
~25 kg wet, ~25 kg dry
Launch date (UTC)
2024-01-31 (1 year ago)
Launch vehicle
ELECTRON
Launch site
Rocket Lab Launch Complex (RLLC)
Object type
Payload
Rocket body
Debris
Shape & HBR
Box + 2 Pan, 1 m
Radar Cross Section
0.146 m², Medium (>0.1 m² and < 1m²)

Expand to show TLE details & history

TLE from 13 hours ago
0 LEMUR 2 NIMBUS2000
1 58899U 24022A   25191.56132654  .00006405  00000-0  23715-3 0  9995
2 58899  97.4458  34.6160 0010233 253.9651 106.0461 15.27968927 79907
Epoch: 2025-07-10T13:28Z
TLE epoch observation values (Epoch: 2025-07-10T13:28:18.613Z)
Latitude
-0.00006°
Longitude
-96.18739°
Altitude
486.932 km
Speed
7.621 km/s
True Right ascension
02h 18m 27s
True Declination
0° 00' 00"
Sunlit
Object was in daylight at epoch
Visualization orbit readout
Latitude
-15.44187°
Longitude
82.31405°
Altitude
484.357 km
Speed
7.624 km/s
Apparent Right ascension
11h 59m 28s
Apparent Declination
-69° 09' 38"
Sunlit
Object is in daylight
Visualization observer readout
Local Sidereal Time
15:10:34
Azimuth
196.842° SSW
Elevation
-24.602°
Doppler factor
1
Orbital elements
Apogee altitude
485.858 km
Perigee altitude
471.825 km
Semi-major axis
6,856.979 km
Eccentricity
0.00102
Inclination
97.4458°
RAAN
34.616°
Arg. of periapsis
253.9651°
True anomaly
Unknown
Mean anomaly
106.0461°
Eccentric anomaly
Unknown
Mean motion
3.82247 °/min
Orbital period
94.18 mins
BSTAR
0.00023715
Loading maneuver chart data...
Loading SW <> Apogee altitude chart data...
Loading historical data...
Loading historical data...
Loading historical data...
Loading historical data...
Loading historical data...
Loading historical data...
Loading historical data...

LEMUR 2 NIMBUS2000 Visibility forecast

Observer location: undefined°, undefined°

Span
Click to sort rows by Start time (UTC) header in descending order
Start Az.
Max El. time (UTC)
Max El. Az.
Max El.
End time (UTC)
End Az.
6 mins2025-07-11 13:10:56.018Z139.398° SSE2025-07-11 13:13:56.018Z63.578° ENE32.073°2025-07-11 13:16:56.018Z4.623° NNE
5 mins2025-07-12 02:11:56.018Z29.213° NE2025-07-12 02:13:56.018Z92.179° ESE38.944°2025-07-12 02:16:56.018Z176.294° S
|